COSMOS 2528 (43657 NORAD) Tracking and Keplerian Element Data

This shows tracking and keplerian element data for the satellite.

Feedback or suggestion? Click here.




ElementValue
Catalog43657
NameCOSMOS 2528
Epoch Orbit423
Epoch Day328.15541782
Epoch Year2018
RAAN309.6366
Inclination67.1509
Eccentricity0.0006782
Argument of Perigee262.7772
Mean Anonmoly97.2542
Mean Motion13.96670025
Decay Rate-7.5E-07
L11 43657U 18082A 18328.15541782 -.00000075 00000-0 00000+0 0 9991
L22 43657 67.1509 309.6366 0006782 262.7772 97.2542 13.96670025 4231

Live tracking and technical data element details for COSMOS 2528 (NORAD 43657). COSMOS 2528 can be tracked NOW for your location showing map with azimuth and elevation plus other details from your city location.

Track the satellite on the map from your city or location and see movement details for azimuth, elevation, latitude, longitude, range, height, and movement on the map or in text.







IsCatalogInMostPopularTable: catalog: 43657, numindb: 80
Update: records affected: 1



GetName: 43657 COSMOS 2528

Hit Count: updated at: Thu, 25 Apr 2019 20:36:12 GMT